Location: Bouvelinghem
(50.7331°N, 2.0317°E)
Time: 06:56:06
(UTC+00:00)

Daily predictions for brighter satellites

Satellite Brightness Start Highest point End
(mag) Time Altitude Azimuth Time Altitude Azimuth Time Altitude Azimuth
Cosmos 2366 rocket 4.1 19:50:42 10° S 19:56:58 86° W 20:03:12 10° N
MOS 1 Rocket 4.3 19:52:00 10° N 19:57:25 64° WNW 20:02:44 10° SSW
Lacrosse 5 2.9 19:54:27 10° WNW 19:59:18 43° N 20:04:08 10° E
ERS-1 Rocket 4.4 19:57:11 10° ESE 20:01:03 23° ENE 20:04:55 10° N
Cosmos 2369 4.0 19:56:11 10° NNW 20:01:52 59° NE 20:07:31 10° SE
Cosmos 1862 3.5 20:00:19 10° S 20:04:17 56° E 20:08:17 10° NNE
Sich 1 3.6 20:01:08 10° SSE 20:05:15 39° E 20:09:25 10° NNE
Meteor 2-6 Rocket 4.3 20:00:36 10° NNW 20:06:06 84° W 20:11:44 10° S
Cosmos 1818 3.6 20:01:01 10° NW 20:06:32 87° NE 20:11:59 10° SE
SJ-6B 4.2 20:02:51 10° S 20:06:44 42° W 20:10:34 10° NNW
BREEZE-M DEB (TANK) 2.1 20:03:48 10° WSW 20:07:33 57° S 20:09:32 10° E
IRIDIUM 106 4.4 20:04:04 10° S 20:09:13 66° E 20:14:25 10° N
Cosmos 2082 Rocket 3.2 20:05:32 10° SSE 20:10:02 25° ESE 20:14:33 10° NE
Cosmos 2278 4.2 20:05:33 10° NNW 20:11:07 49° NE 20:16:38 10° SE
Cosmos 2123 Rocket 4.5 20:05:42 10° N 20:11:39 45° ENE 20:17:36 10° SE
Cosmos 1500 Rocket 4.0 20:11:10 10° SSW 20:15:28 66° WNW 20:19:47 10° N
Spot 2 Rocket 3.9 20:11:54 10° SE 20:16:47 48° ENE 20:21:41 10° N
Cosmos 2322 Rocket 4.0 20:14:23 10° NNW 20:18:36 21° NE 20:22:50 10° E
Meteor 1-4 Rocket 3.2 20:16:13 10° N 20:19:29 35° ENE 20:22:26 12° SE
Resurs 1-3 4.1 20:16:06 10° S 20:20:26 60° WSW 20:24:48 10° NNW
CZ-2C R/B 3.0 20:18:16 10° N 20:23:25 67° WNW 20:28:33 10° SSW
Terra 3.4 20:21:18 10° ESE 20:24:56 22° ENE 20:28:35 10° N
USA 234 3.3 20:18:59 10° ESE 20:25:33 87° NNE 20:32:08 10° WNW
Cosmos 407 Rocket 3.8 20:20:34 10° S 20:25:39 47° ESE 20:30:43 10° NE
Cosmos 1666 Rocket 3.9 20:22:46 10° SSE 20:26:50 43° E 20:30:57 10° NNE
Cosmos 1238 Rocket 4.2 20:28:02 12° ESE 20:28:50 13° E 20:30:13 10° ENE
Meteor 1-27 Rocket 3.9 20:24:16 10° N 20:30:12 82° ENE 20:36:09 10° SSE
MetOp-B 4.2 20:26:22 10° SSE 20:31:44 80° ENE 20:37:07 10° NNW
Cosmos 2360 Rocket 4.3 20:28:50 10° N 20:32:32 17° NNE 20:36:13 10° ENE
BREEZE-M DEB (TANK) 4.2 20:32:30 10° W 20:36:04 17° WSW 20:38:16 10° SSW
ERBS 3.1 20:33:41 10° WSW 20:36:58 53° NNW 20:40:13 10° NE
Cosmos 1805 Rocket 3.8 20:34:07 10° SSW 20:38:33 77° WNW 20:43:02 10° N
SPOT 5 3.6 20:35:54 14° SE 20:39:06 33° ENE 20:43:00 10° N
Cosmos 1980 Rocket 2.3 20:36:40 10° NNW 20:42:24 70° ENE 20:47:05 15° SE
SPOT 1/Viking Rocket 3.7 20:39:53 12° SSE 20:44:36 66° ENE 20:49:49 10° N
SL-4 R/B 2.5 20:44:11 10° SSW 20:47:40 30° SSE 20:50:56 10° E
Genesis I 3.2 20:44:08 10° NW 20:48:02 73° NE 20:50:44 19° SE
BREEZE-M DEB (TANK) 2.4 20:45:44 10° WSW 20:48:23 66° SSE 20:55:06 10° E
Cosmos 405 Rocket 4.1 20:49:22 18° ESE 20:50:38 21° E 20:53:29 10° NE
ATLAS 5 CENTAUR R/B 3.6 20:45:40 10° WNW 20:50:50 35° WSW 20:56:43 10° S
Cosmos 1140 Rocket 3.5 20:46:08 10° S 20:51:16 59° ESE 20:56:27 10° NNE
Cosmos 389 Rocket 4.3 20:50:48 10° NNW 20:53:46 28° W 20:56:45 10° SSW
Cosmos 1023 Rocket 4.5 20:50:34 10° S 20:55:47 66° ESE 21:01:02 10° NNE
Cosmos 1812 4.2 20:53:20 10° NNW 20:56:51 35° W 21:00:21 10° SSW
USA 32 4.2 20:53:02 13° SSE 20:57:38 54° E 21:02:44 10° NNE
Cosmos 1697 Rocket 3.2 20:52:33 10° NW 20:58:03 56° WSW 21:03:04 12° S
Cosmos 1633 Rocket 3.0 20:55:40 10° S 21:00:05 77° E 21:04:31 10° NNE
Cosmos 1833 Rocket 2.7 20:54:43 10° SSW 21:00:21 86° ESE 21:06:01 10° NNE
Okean 1-7 4.0 21:02:29 10° N 21:06:25 32° ENE 21:08:30 21° ESE
Cosmos 1867 3.8 21:01:31 10° SSW 21:06:39 45° ESE 21:11:51 10° NE
CENTAUR R/B 3.6 21:04:45 19° SE 21:07:07 23° ESE 21:12:18 10° ENE
Cosmos 1707 Rocket 4.5 21:04:16 10° NNW 21:08:26 45° W 21:12:33 10° SSW
Resurs 01 Rocket 3.3 21:06:44 10° SSW 21:10:37 30° W 21:14:33 10° NNW
Landsat 7 4.2 21:08:59 13° S 21:13:12 61° WSW 21:17:57 10° NNW
FALCON 9 DEB 3.7 21:10:12 10° SSW 21:13:24 34° SE 21:15:22 19° E
Cosmos 1515 4.5 21:13:18 10° N 21:16:54 38° ENE 21:18:23 27° ESE
deb Kosmos-1763 3.9 21:14:15 12° SSW 21:17:33 72° ESE 21:21:13 10° NNE
Cosmos 44 4.4 21:15:03 10° NNW 21:19:30 36° NE 21:23:09 15° E
Cosmos 192 4.4 21:14:54 10° NNW 21:19:49 77° WSW 21:22:57 22° SSE
ATLAS 5 CENTAUR R/B 2.8 21:17:57 10° NNW 21:20:08 32° NE 21:23:24 14° E
Cosmos 676 Rocket 4.0 21:14:53 10° S 21:20:09 66° ESE 21:25:29 10° NNE
IGS 5A 4.3 21:17:35 13° S 21:21:02 45° W 21:25:03 10° NNW
Meteor 1-25 Rocket 4.2 21:17:53 15° S 21:22:34 68° E 21:28:09 10° NNE
Cosmos 1470 Rocket 3.5 21:19:30 18° S 21:22:48 75° E 21:27:12 10° NNE
Cosmos 1934 Rocket 4.2 21:18:32 10° SSW 21:24:53 75° W 21:31:18 10° N
Aureole 1 Rocket 4.4 21:19:10 10° SSW 21:26:04 82° ESE 21:34:27 10° NNE
GP-B 3.5 21:22:25 10° N 21:26:49 62° W 21:30:41 13° SSW
USA 267 3.3 21:25:18 10° ENE 21:31:53 89° NW 21:38:28 10° WSW
NOSS 3-2 (A) 3.5 21:27:07 10° SSW 21:32:39 52° ESE 21:38:59 10° NE
Cosmos 921 Rocket 3.0 21:28:34 10° NNW 21:32:49 77° WSW 21:34:51 30° S
Cosmos 1862 Rocket 4.3 21:30:40 10° NNW 21:35:00 49° W 21:38:11 17° SSW
NOSS 3-2 (C) 3.9 21:35:51 24° SSE 21:38:42 38° ESE 21:44:36 10° NE
Cosmos 841 Rocket 4.2 21:34:22 10° NNW 21:39:21 43° ENE 21:42:00 25° ESE
ERS-1 Rocket 3.2 21:36:08 21° S 21:39:25 65° WSW 21:44:27 10° NNW
SAR-Lupe-2 3.4 21:36:40 10° NNE 21:40:16 87° E 21:41:56 30° SSW
OPS 6432 4.3 21:36:28 10° SW 21:40:28 86° SE 21:43:37 10° NE
Cosmos 540 Rocket 4.2 21:35:52 10° NNW 21:40:49 42° ENE 21:43:22 25° ESE
SL-16 R/B 2.4 21:35:36 10° NNW 21:41:16 64° ENE 21:44:17 28° SE
Lacrosse 5 1.9 21:37:39 10° WNW 21:42:45 82° NNE 21:45:31 28° ESE
Cosmos 468 Rocket 4.0 21:37:45 10° NNW 21:43:06 86° ENE 21:45:45 31° SSE
Cosmos 1741 Rocket 4.3 21:48:23 31° SSE 21:50:24 47° ESE 21:55:27 10° NE
Cosmos 1570 Rocket 4.4 21:45:29 10° NNW 21:50:42 53° ENE 21:53:10 30° ESE
Cosmos 2219 Rocket 4.1 21:47:30 10° NNW 21:51:51 22° NE 21:56:12 10° E
Cosmos 1954 Rocket 4.2 21:48:12 10° SSW 21:53:32 73° WNW 21:58:52 10° NNE
Cosmos 2082 Rocket 2.6 21:47:59 10° SW 21:53:40 67° WNW 21:59:20 10° NNE
Cosmos 1184 Rocket 4.4 21:53:55 14° SW 21:56:24 33° WNW 21:59:27 10° N
Terra 2.1 22:00:02 30° S 22:02:18 61° WSW 22:07:03 10° NNW
Aureole 2 4.4 22:03:02 59° S 22:03:35 74° ESE 22:07:33 10° NNE
Cosmos 2322 Rocket 2.2 21:57:55 10° NNW 22:03:39 75° ENE 22:06:13 34° SE
Cosmos 1933 Rocket 3.9 22:01:23 22° SSW 22:04:04 62° WNW 22:08:29 10° N
Okean 1 4.1 22:01:36 10° NNW 22:05:29 46° W 22:07:07 29° SSW
Cosmos 1238 Rocket 3.7 22:06:53 22° WSW 22:08:08 31° WNW 22:10:50 10° N
Cosmos 2100 Rocket 3.9 22:05:35 31° S 22:08:37 69° E 22:14:44 10° NNE
Cosmos 1602 4.3 22:06:47 27° SW 22:08:41 55° WNW 22:12:34 10° N
USA 234 4.0 22:06:06 26° S 22:09:01 38° SW 22:15:03 10° WNW
Cosmos 1437 Rocket 3.0 22:06:08 10° NNW 22:09:54 57° W 22:10:50 43° SSW
Meteor 1-11 Rocket 4.4 22:09:09 32° SE 22:10:43 38° E 22:15:58 10° NNE
Cosmos 1242 Rocket 4.1 22:08:51 10° NNE 22:11:48 23° ENE 22:12:07 23° ENE
ERBS 4.4 22:10:51 10° WNW 22:13:44 27° N 22:16:37 10° ENE
Cosmos 1869 Rocket 3.5 22:13:01 47° SSE 22:14:11 72° E 22:18:39 10° NNE
SPOT 5 4.0 22:15:08 21° SW 22:17:13 31° W 22:21:07 10° NNW
Cosmos 2360 Rocket 2.6 22:12:13 10° NNW 22:17:50 57° NE 22:20:20 32° ESE
COSMOS 2428 4.3 22:13:38 10° NNW 22:18:31 27° NE 22:22:37 13° E
MTI 3.8 22:15:43 10° NNE 22:18:29 65° NE 22:18:29 65° NE
JB-3 4.3 22:15:35 10° NNE 22:19:35 81° WNW 22:20:44 46° SSW
ATLAS 3B R/B 3.3 22:21:12 30° SE 22:21:51 31° ESE 22:27:30 10° ENE
Geosat 3.9 22:20:48 43° SSE 22:22:32 87° WSW 22:27:37 10° NNW
Cosmos 1703 Rocket 4.4 22:18:32 10° NNW 22:22:41 43° W 22:24:15 30° SW
Iridium 4 Rocket 2.9 22:21:45 51° S 22:22:49 84° E 22:27:04 10° N
Cosmos 2173 Rocket 3.9 22:21:11 33° S 22:24:11 82° E 22:30:20 10° NNE
Cosmos 1500 3.0 22:25:10 71° S 22:25:33 90° NNE 22:29:19 10° N
Cosmos 1980 Rocket 3.9 22:21:29 10° NW 22:25:52 23° WSW 22:28:51 15° SW
Cosmos 405 Rocket 4.1 22:24:29 20° WSW 22:26:25 34° WNW 22:29:52 10° N
SL-4 R/B 1.5 22:23:13 10° WSW 22:27:01 87° SSE 22:27:13 79° E
USA 238 DEB 3.7 22:21:58 10° SW 22:28:39 84° NW 22:35:40 10° NE
ALOS 2 3.5 22:27:44 32° E 22:28:45 36° ENE 22:32:47 10° N
USA 238 3.7 22:22:05 10° SW 22:28:45 84° NW 22:35:46 10° NE
Cosmos 1763 Rocket 4.1 22:24:07 10° NNW 22:29:15 48° WSW 22:31:09 33° SSW
Cosmos 1725 Rocket 4.3 22:27:19 37° SE 22:29:33 54° E 22:35:41 10° NNE
Cosmos 1674 Rocket 4.3 22:28:29 10° N 22:32:33 38° ENE 22:33:13 36° E
Cosmos 1536 3.3 22:34:39 43° E 22:34:39 43° E 22:38:21 10° NNE
Cosmos 1666 2.9 22:37:32 53° ENE 22:37:32 53° ENE 22:40:59 10° NNE
Cosmos 2333 Rocket 3.2 22:32:47 10° NNW 22:38:14 39° NE 22:41:18 23° ESE
Cosmos 1271 Rocket 4.1 22:37:19 10° N 22:40:32 26° ENE 22:40:47 25° ENE
Cosmos 1356 4.2 22:41:30 42° ENE 22:41:30 42° ENE 22:44:10 10° NNE
Meteor 1-13 Rocket 4.1 22:36:02 10° NNW 22:41:36 82° W 22:43:23 45° S
Cosmos 2237 Rocket 4.4 22:37:48 10° NNW 22:41:57 20° NE 22:46:03 10° E
Cosmos 2016 Rocket 4.0 22:39:51 39° S 22:42:25 78° E 22:48:48 10° NNE
Meteor 1-5 Rocket 4.3 22:40:38 36° SSW 22:43:15 88° WNW 22:49:14 10° NNE
Cosmos 2061 Rocket 3.9 22:41:23 40° S 22:43:48 79° E 22:50:01 10° NNE
Lacrosse 4 Rocket 3.5 22:45:23 16° E 22:45:23 16° E 22:46:49 10° ENE
Okean 1-7 4.4 22:40:08 10° NNW 22:43:56 30° W 22:45:21 24° WSW
MOS 1-B Rocket 3.7 22:38:51 10° NNE 22:44:37 82° ESE 22:46:43 41° S
Cosmos 2221 Rocket 3.5 22:41:14 10° NNW 22:45:42 80° W 22:46:29 60° S
Cosmos 1459 Rocket 4.1 22:42:36 30° SSW 22:45:51 74° W 22:52:15 10° N
Okean 3 3.7 22:45:37 10° NNW 22:49:50 59° W 22:50:30 51° SW
FALCON 9 DEB 4.4 22:46:47 10° W 22:48:49 32° W 22:48:49 32° W
Cosmos 1733 Rocket 3.1 22:50:59 57° ESE 22:51:15 58° E 22:55:35 10° NNE
Cosmos 1066 Rocket 4.2 22:46:20 10° N 22:52:07 75° ENE 22:53:46 47° SSE
SL-27 R/B 2.9 22:53:08 55° NW 22:53:08 55° NW 22:56:20 10° NNE
Meteor 1-23 Rocket 4.3 22:48:04 10° N 22:53:55 75° ENE 22:55:42 46° SSE
Cosmos 1864 Rocket 4.4 22:53:22 42° S 22:55:37 81° E 23:01:54 10° NNE
Thor Agena Rocket 3.4 22:50:46 10° NNE 22:55:51 75° ESE 22:57:00 53° S
CENTAUR R/B 2.6 22:51:50 17° SW 22:56:47 87° NW 23:04:08 10° NE
Cosmos 44 3.5 22:56:09 10° NW 23:00:55 54° WSW 23:01:33 50° SSW
Cosmos 1802 Rocket 4.2 22:58:41 32° SSW 23:01:46 70° WNW 23:08:09 10° N
Spot 4 4.1 23:06:33 49° SW 23:07:26 57° WSW 23:12:13 10° NNW
Cosmos 1378 3.3 23:09:01 10° N 23:12:29 65° NE 23:12:29 65° NE
USA 267 3.9 23:08:20 10° ENE 23:14:41 55° N 23:21:02 10° W
Cosmos 2233 Rocket 4.0 23:14:31 46° S 23:16:29 76° E 23:22:50 10° NNE
Cosmos 1842 4.4 23:13:57 10° N 23:17:33 32° ENE 23:17:41 32° ENE
Cosmos 1908 Rocket 4.1 23:18:33 44° E 23:18:33 44° E 23:22:42 10° NNE
Cosmos 841 Rocket 4.5 23:16:29 10° NW 23:21:09 33° WSW 23:22:05 31° SW
Cosmos 540 Rocket 4.4 23:17:42 10° NW 23:22:19 33° WSW 23:23:10 31° WSW
NOSS 3-2 (A) 4.4 23:17:50 10° WSW 23:23:37 48° NNW 23:30:19 10° NE
SL-16 R/B 3.5 23:20:21 10° NW 23:24:57 26° WSW 23:26:08 24° WSW
Lacrosse 5 3.1 23:21:02 10° WNW 23:24:41 27° WSW 23:24:41 27° WSW
Cosmos 2322 3.6 23:22:28 10° NNW 23:28:11 86° WSW 23:29:31 54° SSE
Cosmos 1378 Rocket 3.4 23:24:04 10° NNW 23:28:33 79° W 23:28:49 75° SW
NOSS 3-2 (C) 4.0 23:23:28 10° WSW 23:29:19 59° NW 23:36:07 10° NE
Cosmos 1833 4.1 23:28:45 55° S 23:29:58 76° ESE 23:35:39 10° NNE
COSMOS 2487 3.3 23:32:14 45° NE 23:32:14 45° NE 23:34:45 10° NNE
GENESIS II 4.3 23:30:45 10° NW 23:34:38 75° NNE 23:34:38 75° NNE
Cosmos 2084 Rocket 3.8 23:35:29 45° W 23:36:31 61° NW 23:40:50 10° NE
Cosmos 2219 Rocket 2.2 23:31:00 10° NNW 23:36:44 81° ENE 23:38:19 49° SE
Tsikada Rocket 4.5 23:31:33 10° NNW 23:37:41 51° W 23:39:45 37° SW
EO 1 Del DPAF 4.0 23:36:10 10° N 23:39:45 43° WNW 23:39:56 42° WNW
Cosmos 1975 Rocket 3.5 23:37:32 10° N 23:41:57 53° ENE 23:42:25 50° E
Cosmos 2333 4.2 23:36:47 10° NNW 23:42:34 70° WSW 23:43:44 55° S
Cosmos 1503 Rocket 4.4 23:45:55 45° SE 23:46:27 47° ESE 23:51:35 10° NE
Cosmos 1242 Rocket 4.1 23:43:30 10° NNW 23:46:08 28° WNW 23:46:08 28° WNW
Cosmos 2322 Rocket 3.7 23:42:54 10° NW 23:47:07 22° W 23:48:01 21° WSW
YAOGAN 11 4.1 23:48:26 67° SE 23:48:56 76° ENE 23:53:33 10° NNW
Helios 1A 2.8 23:49:48 88° S 23:49:50 90° SW 23:54:06 10° NNW
ERBS 3.7 23:47:30 10° NW 23:50:37 36° NNE 23:51:02 35° NE
SL-16 R/B 4.3 23:46:40 10° ESE 23:51:39 26° NE 23:56:37 10° N
SL-16 R/B 4.3 23:47:43 10° NNW 23:52:17 24° NE 23:56:50 10° E
CZ-2D R/B 4.5 23:50:58 10° ENE 23:52:44 11° E 23:54:29 10° ESE
Cosmos 1486 Rocket 3.9 23:52:11 63° SSW 23:53:03 85° ESE 23:58:17 10° NNE
Cosmos 1544 3.5 23:54:38 58° NNE 23:54:38 58° NNE 23:57:42 10° NNE
Sich 1 Rocket 4.4 23:55:30 38° E 23:55:38 38° E 23:59:42 10° NNE
